Time,TemperatureF,DewpointF,PressureIn,WindDirection,WindDirectionDegrees,WindSpeedMPH,WindSpeedGustMPH,Humidity,HourlyPrecipIn,Conditions,Clouds,dailyrainin,SoftwareType,DateUTC
2013-04-25 00:12:00,44.6,44.0,29.97,South,189,0.0,0.0,97,0.00,,,0.00,weatherlink.com 1.10,2013-04-25 07:12:00,
2013-04-25 00:27:00,44.6,44.0,29.97,South,189,1.0,2.0,97,0.00,,,0.00,weatherlink.com 1.10,2013-04-25 07:27:00,
2013-04-25 00:42:00,44.5,44.0,29.98,South,189,0.0,2.0,97,0.00,,,0.00,weatherlink.com 1.10,2013-04-25 07:42:00,
2013-04-25 00:57:00,44.3,44.0,29.98,South,184,0.0,3.0,97,0.00,,,0.00,weatherlink.com 1.10,2013-04-25 07:57:00,
2013-04-25 01:12:00,44.2,43.0,29.98,South,184,1.0,3.0,97,0.00,,,0.00,weatherlink.com 1.10,2013-04-25 08:12:00,
2013-04-25 01:27:00,44.2,43.0,29.98,South,184,0.0,2.0,97,0.00,,,0.00,weatherlink.com 1.10,2013-04-25 08:27:00,
2013-04-25 01:42:00,44.1,43.0,29.98,South,187,0.0,2.0,97,0.00,,,0.00,weatherlink.com 1.10,2013-04-25 08:42:00,
2013-04-25 01:57:00,44.1,43.0,29.98,WSW,240,0.0,2.0,97,0.00,,,0.00,weatherlink.com 1.10,2013-04-25 08:57:00,
2013-04-25 02:12:00,44.0,43.0,29.99,South,175,0.0,1.0,97,0.00,,,0.00,weatherlink.com 1.10,2013-04-25 09:12:00,
2013-04-25 02:27:00,44.1,43.0,29.98,South,175,0.0,2.0,97,0.00,,,0.00,weatherlink.com 1.10,2013-04-25 09:27:00,
2013-04-25 02:42:00,44.2,43.0,29.98,South,175,0.0,1.0,97,0.00,,,0.00,weatherlink.com 1.10,2013-04-25 09:42:00,
2013-04-25 02:57:00,44.3,43.0,29.98,South,175,0.0,0.0,96,0.00,,,0.00,weatherlink.com 1.10,2013-04-25 09:57:00,
2013-04-25 03:12:00,44.5,44.0,29.99,SSW,192,0.0,3.0,96,0.00,,,0.00,weatherlink.com 1.10,2013-04-25 10:12:00,
2013-04-25 03:27:00,44.6,44.0,29.99,SSW,192,0.0,1.0,96,0.00,,,0.00,weatherlink.com 1.10,2013-04-25 10:27:00,
2013-04-25 03:42:00,44.7,44.0,29.99,SSE,167,0.0,1.0,96,0.00,,,0.00,weatherlink.com 1.10,2013-04-25 10:42:00,
2013-04-25 03:57:00,44.8,44.0,30.00,SSE,167,0.0,0.0,96,0.00,,,0.00,weatherlink.com 1.10,2013-04-25 10:57:00,
2013-04-25 04:12:00,45.0,44.0,30.00,SSE,167,0.0,0.0,96,0.00,,,0.00,weatherlink.com 1.10,2013-04-25 11:12:00,
2013-04-25 04:27:00,45.1,44.0,30.00,SSE,167,0.0,2.0,95,0.00,,,0.00,weatherlink.com 1.10,2013-04-25 11:27:00,
2013-04-25 04:42:00,45.2,44.0,30.00,SSE,167,0.0,0.0,95,0.00,,,0.00,weatherlink.com 1.10,2013-04-25 11:42:00,
2013-04-25 04:57:00,45.2,44.0,30.00,SSE,167,0.0,0.0,95,0.00,,,0.00,weatherlink.com 1.10,2013-04-25 11:57:00,
2013-04-25 05:12:00,45.2,44.0,30.00,SSE,167,0.0,1.0,95,0.00,,,0.00,weatherlink.com 1.10,2013-04-25 12:12:00,
2013-04-25 05:27:00,45.3,44.0,30.00,SSE,167,0.0,0.0,95,0.00,,,0.00,weatherlink.com 1.10,2013-04-25 12:27:00,
2013-04-25 05:42:00,45.3,44.0,30.00,SSE,167,0.0,1.0,95,0.00,,,0.00,weatherlink.com 1.10,2013-04-25 12:42:00,
2013-04-25 05:57:00,45.4,44.0,30.01,SSE,167,0.0,0.0,95,0.00,,,0.00,weatherlink.com 1.10,2013-04-25 12:57:00,
2013-04-25 06:12:00,45.5,44.0,30.01,SSE,167,0.0,1.0,95,0.00,,,0.00,weatherlink.com 1.10,2013-04-25 13:12:00,
2013-04-25 06:27:00,45.5,44.0,30.01,SSE,167,0.0,0.0,95,0.00,,,0.00,weatherlink.com 1.10,2013-04-25 13:27:00,
2013-04-25 06:42:00,45.5,44.0,30.02,SSE,167,0.0,2.0,95,0.00,,,0.00,weatherlink.com 1.10,2013-04-25 13:42:00,
2013-04-25 06:57:00,45.6,44.0,30.02,SSE,167,0.0,0.0,95,0.00,,,0.00,weatherlink.com 1.10,2013-04-25 13:57:00,
2013-04-25 07:12:00,45.8,45.0,30.03,ENE,65,0.0,0.0,95,0.00,,,0.00,weatherlink.com 1.10,2013-04-25 14:12:00,
2013-04-25 07:27:00,45.9,44.0,30.03,NNW,342,0.0,2.0,94,0.00,,,0.00,weatherlink.com 1.10,2013-04-25 14:27:00,
2013-04-25 07:42:00,46.0,44.0,30.04,NNW,342,0.0,1.0,94,0.00,,,0.00,weatherlink.com 1.10,2013-04-25 14:42:00,
2013-04-25 07:57:00,46.1,45.0,30.04,ENE,78,1.0,2.0,94,0.00,,,0.00,weatherlink.com 1.10,2013-04-25 14:57:00,
2013-04-25 08:13:00,46.2,45.0,30.04,SE,130,0.0,1.0,95,0.00,,,0.00,weatherlink.com 1.10,2013-04-25 15:13:00,
2013-04-25 08:27:00,46.5,45.0,30.05,SE,130,0.0,1.0,94,0.00,,,0.00,weatherlink.com 1.10,2013-04-25 15:27:00,
2013-04-25 08:43:00,46.9,45.0,30.05,SE,130,0.0,1.0,94,0.00,,,0.00,weatherlink.com 1.10,2013-04-25 15:43:00,
2013-04-25 08:58:00,47.2,46.0,30.05,SE,134,0.0,1.0,94,0.00,,,0.00,weatherlink.com 1.10,2013-04-25 15:58:00,
2013-04-25 09:13:00,47.4,45.0,30.07,SSE,157,0.0,3.0,92,0.00,,,0.00,weatherlink.com 1.10,2013-04-25 16:13:00,
2013-04-25 09:28:00,47.6,46.0,30.07,SSE,168,0.0,3.0,93,0.00,,,0.00,weatherlink.com 1.10,2013-04-25 16:28:00,
2013-04-25 09:43:00,47.7,46.0,30.07,SSE,168,0.0,3.0,93,0.00,,,0.00,weatherlink.com 1.10,2013-04-25 16:43:00,
2013-04-25 09:58:00,48.1,46.0,30.08,South,174,2.0,4.0,92,0.00,,,0.00,weatherlink.com 1.10,2013-04-25 16:58:00,
2013-04-25 10:13:00,48.4,46.0,30.08,South,175,0.0,2.0,92,0.00,,,0.00,weatherlink.com 1.10,2013-04-25 17:13:00,
2013-04-25 10:28:00,49.4,47.0,30.08,South,175,0.0,2.0,90,0.00,,,0.00,weatherlink.com 1.10,2013-04-25 17:28:00,
2013-04-25 10:43:00,50.0,48.0,30.09,SSW,209,0.0,3.0,91,0.00,,,0.00,weatherlink.com 1.10,2013-04-25 17:43:00,
2013-04-25 10:58:00,50.5,47.0,30.09,SSE,150,2.0,4.0,87,0.00,,,0.00,weatherlink.com 1.10,2013-04-25 17:58:00,
2013-04-25 11:13:00,51.9,48.0,30.09,SSE,148,0.0,2.0,87,0.00,,,0.00,weatherlink.com 1.10,2013-04-25 18:13:00,
2013-04-25 11:28:00,53.5,49.0,30.09,SE,142,1.0,3.0,83,0.00,,,0.00,weatherlink.com 1.10,2013-04-25 18:28:00,
2013-04-25 11:43:00,54.2,49.0,30.09,West,259,1.0,4.0,82,0.00,,,0.00,weatherlink.com 1.10,2013-04-25 18:43:00,
2013-04-25 11:58:00,57.0,50.0,30.09,SW,236,2.0,4.0,78,0.00,,,0.00,weatherlink.com 1.10,2013-04-25 18:58:00,
2013-04-25 12:13:00,58.9,51.0,30.09,West,261,3.0,4.0,76,0.00,,,0.00,weatherlink.com 1.10,2013-04-25 19:13:00,
2013-04-25 12:28:00,60.3,50.0,30.09,South,181,1.0,5.0,70,0.00,,,0.00,weatherlink.com 1.10,2013-04-25 19:28:00,
2013-04-25 12:43:00,60.1,51.0,30.08,South,169,6.0,7.0,71,0.00,,,0.00,weatherlink.com 1.10,2013-04-25 19:43:00,
2013-04-25 12:59:00,60.8,51.0,30.08,South,182,2.0,5.0,70,0.00,,,0.00,weatherlink.com 1.10,2013-04-25 19:59:00,
2013-04-25 13:13:00,61.2,50.0,30.08,SSE,165,3.0,8.0,68,0.00,,,0.00,weatherlink.com 1.10,2013-04-25 20:13:00,
2013-04-25 13:28:00,62.1,53.0,30.09,SSE,165,3.0,7.0,72,0.00,,,0.00,weatherlink.com 1.10,2013-04-25 20:28:00,
2013-04-25 13:43:00,62.3,51.0,30.09,WSW,238,2.0,8.0,66,0.00,,,0.00,weatherlink.com 1.10,2013-04-25 20:43:00,
2013-04-25 13:58:00,62.3,52.0,30.09,South,180,5.0,7.0,68,0.00,,,0.00,weatherlink.com 1.10,2013-04-25 20:58:00,
2013-04-25 14:13:00,62.2,51.0,30.09,South,188,6.0,9.0,66,0.00,,,0.00,weatherlink.com 1.10,2013-04-25 21:13:00,
2013-04-25 14:28:00,62.8,52.0,30.09,SSE,161,3.0,6.0,67,0.00,,,0.00,weatherlink.com 1.10,2013-04-25 21:28:00,
2013-04-25 14:43:00,63.3,51.0,30.09,SSW,193,2.0,8.0,65,0.00,,,0.00,weatherlink.com 1.10,2013-04-25 21:43:00,
2013-04-25 14:58:00,63.9,51.0,30.09,South,169,4.0,8.0,64,0.00,,,0.00,weatherlink.com 1.10,2013-04-25 21:58:00,
2013-04-25 15:14:00,63.5,51.0,30.09,SSW,199,5.0,8.0,65,0.00,,,0.00,weatherlink.com 1.10,2013-04-25 22:14:00,
2013-04-25 15:29:00,63.2,51.0,30.09,South,173,2.0,6.0,65,0.00,,,0.00,weatherlink.com 1.10,2013-04-25 22:29:00,
2013-04-25 15:44:00,64.0,52.0,30.08,SW,217,3.0,7.0,65,0.00,,,0.00,weatherlink.com 1.10,2013-04-25 22:44:00,
2013-04-25 15:59:00,64.5,52.0,30.08,South,169,4.0,8.0,64,0.00,,,0.00,weatherlink.com 1.10,2013-04-25 22:59:00,
2013-04-25 16:14:00,64.8,52.0,30.08,SSE,161,6.0,7.0,63,0.00,,,0.00,weatherlink.com 1.10,2013-04-25 23:14:00,
2013-04-25 16:29:00,65.1,52.0,30.07,South,186,1.0,6.0,62,0.00,,,0.00,weatherlink.com 1.10,2013-04-25 23:29:00,
2013-04-25 16:44:00,65.1,52.0,30.08,SSW,209,4.0,6.0,62,0.00,,,0.00,weatherlink.com 1.10,2013-04-25 23:44:00,
2013-04-25 16:59:00,64.7,52.0,30.08,South,187,4.0,7.0,63,0.00,,,0.00,weatherlink.com 1.10,2013-04-25 23:59:00,
2013-04-25 17:14:00,64.1,51.0,30.08,South,182,2.0,7.0,63,0.00,,,0.00,weatherlink.com 1.10,2013-04-26 00:14:00,
2013-04-25 17:29:00,63.4,51.0,30.08,SSW,194,2.0,6.0,65,0.00,,,0.00,weatherlink.com 1.10,2013-04-26 00:29:00,
2013-04-25 17:44:00,63.0,51.0,30.07,South,186,3.0,5.0,64,0.00,,,0.00,weatherlink.com 1.10,2013-04-26 00:44:00,
2013-04-25 17:59:00,62.3,51.0,30.08,South,177,3.0,6.0,66,0.00,,,0.00,weatherlink.com 1.10,2013-04-26 00:59:00,
2013-04-25 18:14:00,61.6,51.0,30.07,South,189,1.0,8.0,68,0.00,,,0.00,weatherlink.com 1.10,2013-04-26 01:14:00,
2013-04-25 18:29:00,60.3,50.0,30.08,SSW,192,2.0,6.0,68,0.00,,,0.00,weatherlink.com 1.10,2013-04-26 01:29:00,
2013-04-25 18:44:00,59.5,50.0,30.08,SSW,195,3.0,6.0,70,0.00,,,0.00,weatherlink.com 1.10,2013-04-26 01:44:00,
2013-04-25 18:59:00,56.9,49.0,30.08,SSW,199,2.0,3.0,74,0.00,,,0.00,weatherlink.com 1.10,2013-04-26 01:59:00,
2013-04-25 19:14:00,54.6,48.0,30.08,SSW,209,3.0,3.0,79,0.00,,,0.00,weatherlink.com 1.10,2013-04-26 02:14:00,
2013-04-25 19:29:00,52.9,48.0,30.09,SSW,199,1.0,3.0,83,0.00,,,0.00,weatherlink.com 1.10,2013-04-26 02:29:00,
2013-04-25 19:44:00,51.5,48.0,30.09,SSW,209,2.0,3.0,86,0.00,,,0.00,weatherlink.com 1.10,2013-04-26 02:44:00,
2013-04-25 19:59:00,50.7,47.0,30.09,SW,214,1.0,4.0,87,0.00,,,0.00,weatherlink.com 1.10,2013-04-26 02:59:00,
2013-04-25 20:14:00,49.8,46.0,30.10,SSW,209,3.0,3.0,88,0.00,,,0.00,weatherlink.com 1.10,2013-04-26 03:14:00,
2013-04-25 20:29:00,49.2,46.0,30.11,SSW,209,0.0,1.0,89,0.00,,,0.00,weatherlink.com 1.10,2013-04-26 03:29:00,
2013-04-25 20:44:00,48.8,46.0,30.11,SSW,209,0.0,0.0,89,0.00,,,0.00,weatherlink.com 1.10,2013-04-26 03:44:00,
2013-04-25 20:59:00,48.3,46.0,30.11,SSW,209,0.0,1.0,91,0.00,,,0.00,weatherlink.com 1.10,2013-04-26 03:59:00,
2013-04-25 21:14:00,47.9,46.0,30.12,SSE,159,0.0,2.0,92,0.00,,,0.00,weatherlink.com 1.10,2013-04-26 04:14:00,
2013-04-25 21:29:00,47.5,45.0,30.12,SE,140,0.0,2.0,92,0.00,,,0.00,weatherlink.com 1.10,2013-04-26 04:29:00,
2013-04-25 21:44:00,47.2,45.0,30.13,East,100,1.0,3.0,93,0.00,,,0.00,weatherlink.com 1.10,2013-04-26 04:44:00,
2013-04-25 21:59:00,46.8,45.0,30.13,East,98,0.0,1.0,93,0.00,,,0.00,weatherlink.com 1.10,2013-04-26 04:59:00,
2013-04-25 22:14:00,46.3,44.0,30.13,NNE,29,0.0,0.0,93,0.00,,,0.00,weatherlink.com 1.10,2013-04-26 05:14:00,
2013-04-25 22:29:00,46.1,45.0,30.13,NNE,29,0.0,1.0,95,0.00,,,0.00,weatherlink.com 1.10,2013-04-26 05:29:00,
2013-04-25 22:44:00,45.6,44.0,30.13,NNE,29,0.0,0.0,94,0.00,,,0.00,weatherlink.com 1.10,2013-04-26 05:44:00,
2013-04-25 22:59:00,45.1,44.0,30.13,NNE,29,0.0,0.0,95,0.00,,,0.00,weatherlink.com 1.10,2013-04-26 05:59:00,
2013-04-25 23:14:00,44.8,44.0,30.13,NNE,29,0.0,0.0,95,0.00,,,0.00,weatherlink.com 1.10,2013-04-26 06:14:00,
2013-04-25 23:29:00,44.7,44.0,30.13,NNE,29,0.0,1.0,96,0.00,,,0.00,weatherlink.com 1.10,2013-04-26 06:29:00,
2013-04-25 23:44:00,45.0,44.0,30.13,NNE,29,0.0,1.0,97,0.00,,,0.00,weatherlink.com 1.10,2013-04-26 06:44:00,
2013-04-25 23:59:00,44.5,44.0,30.13,NNE,29,0.0,0.0,96,0.00,,,0.00,weatherlink.com 1.10,2013-04-26 06:59:00,